KEWR

Newark Liberty International Airport

Airport
ICAO code
KEWR
IATA Code
EWR
Summary
ICAO Region
NAM
ICAO Territory
Location

Newark, New Jersey,

Serving
Newark
Elevation
18 ft
Coordinates
40° 41' 24" N , 74° 10' 42" W
KCC
Airport LOS
Parallel Runway Operation
Airport RE
Engineered Materials Arresting System
Metar
Observation
KEWR 032051Z 02013KT 9SM -RA FEW032 OVC095 09/06 A3019 RMK AO2 SLP222 P0003 60008 T00890061 56015
Station
Newark, Newark International Airport
Date/Time
2022-10-03 20:51:00
Wind direction
20°
Wind speed
13 kts
Lowest cloud amount
few clouds
Temperature
8.9°C
Dew point
6.1°C
Humidity
82%
Weather condition
light rain

Description

Newark Liberty International Airport (IATA: EWR), first named Newark Airport and later Newark International Airport, is an international airport within the city limits of both Newark and Elizabeth, New Jersey, United States (although it is entirely owned by the city of Newark). It is about 24 km southwest of Midtown Manhattan (New York City).

Climatology

Humid “subtropical” climate (Köppen climate classification Cfa) - characterized by hot, humid summers and cool winters. Significant amounts of precipitation occur in all seasons in most areas. Winter rainfall (and sometimes snowfall) is associated with large storms that the westerlies steer from west to east. Most summer rainfall occurs during thunderstorms.

Airport map

Aerial View

SKYbrary Partners:

Safety knowledge contributed by: